Tracking 35331 objects as of 15-Sep-2026
HD Live streaming from Space Station
objects crossing your sky now

SL-6 DEB


SL-6 DEB is no longer on orbit


NORAD ID: 22244
Int'l Code: 1992-081G
Launch date: November 25, 1992
Source: Commonwealth of Independent States (former USSR) (CIS)
Launch site: PLESETSK MISSILE AND SPACE COMPLEX (PKMTR)
Decay date: 1992-12-09

Note: This is SATELLITE DEBRIS
Your satellite tracking list
Your tracking list is empty




NASA's NSSDC Master Catalog

Two Line Element Set (TLE):
1 22244U 92081  G 92342.92935968  .04130813 +35700-4 +13500-2 0  9995
2 22244 062.7693 152.3278 0123725 122.2465 240.4448 16.09198293001970
Source of the keplerian elements: AFSPC